Location: Unspecified
(48.5670°N, 0.0000°E)
Time: 02:52:24
(UTC+00:00)

S-56A Canister/Altair - Visible Passes

Search period start: 18 July 2019 00:00
Search period end: 28 July 2019 00:00
Orbit: 632 x 2500 km, 38.9° (Epoch: 17 July)

Date Brightness Start Highest point End Pass type
(mag) Time Alt. Az. Time Alt. Az. Time Alt. Az.
25 Jul 10.7 03:39:56 10° S 03:46:08 18° SE 03:53:38 10° E visible
26 Jul 10.7 03:08:37 10° SSE 03:13:26 15° SE 03:19:03 10° E visible
27 Jul 10.8 02:38:10 10° SE 02:40:49 11° SE 02:43:42 10° ESE visible
